Time,TemperatureF,DewpointF,PressureIn,WindDirection,WindDirectionDegrees,WindSpeedMPH,WindSpeedGustMPH,Humidity,HourlyPrecipIn,Conditions,Clouds,dailyrainin,SoftwareType,DateUTC
2013-01-21 00:04:00,28.0,9.0,-100.00,NNW,330,3.0,12.0,43,0.00,,,-99.99,,2013-01-21 05:04:00,
2013-01-21 00:13:00,28.0,8.0,-100.00,NW,320,8.0,19.0,43,0.00,,,-99.99,,2013-01-21 05:13:00,
2013-01-21 00:22:00,28.0,8.0,-100.00,NNW,330,11.0,19.0,42,0.00,,,-99.99,,2013-01-21 05:22:00,
2013-01-21 00:34:00,27.0,6.0,-100.00,NNW,330,15.0,24.0,40,0.00,,,-99.99,,2013-01-21 05:34:00,
2013-01-21 00:42:00,27.0,6.0,-100.00,NNW,340,12.0,24.0,40,0.00,,,-99.99,,2013-01-21 05:42:00,
2013-01-21 00:52:00,27.0,7.0,-100.00,NNW,340,14.0,22.0,40,0.00,,,-99.99,,2013-01-21 05:52:00,
2013-01-21 01:03:00,27.0,8.0,-100.00,NNW,330,9.0,19.0,43,0.00,,,-99.99,,2013-01-21 06:03:00,
2013-01-21 01:13:00,27.0,7.0,-100.00,NNW,335,12.0,21.0,43,0.00,,,-99.99,,2013-01-21 06:13:00,
2013-01-21 01:23:00,26.0,4.0,-100.00,NNW,330,16.0,30.0,37,0.00,,,-99.99,,2013-01-21 06:23:00,
2013-01-21 01:33:00,26.0,3.0,-100.00,NNW,335,14.0,22.0,35,0.00,,,-99.99,,2013-01-21 06:33:00,
2013-01-21 01:43:00,26.0,2.0,-100.00,NW,325,15.0,26.0,34,0.00,,,-99.99,,2013-01-21 06:43:00,
2013-01-21 01:52:00,26.0,2.0,-100.00,NNW,340,7.0,22.0,36,0.00,,,-99.99,,2013-01-21 06:52:00,
2013-01-21 02:03:00,25.0,2.0,-100.00,NNW,335,9.0,13.0,36,0.00,,,-99.99,,2013-01-21 07:03:00,
2013-01-21 02:13:00,25.0,2.0,-100.00,NNW,330,7.0,17.0,37,0.00,,,-99.99,,2013-01-21 07:13:00,
2013-01-21 02:23:00,25.0,2.0,-100.00,NNW,330,9.0,15.0,37,0.00,,,-99.99,,2013-01-21 07:23:00,
2013-01-21 02:33:00,24.0,2.0,-100.00,NNW,330,10.0,16.0,37,0.00,,,-99.99,,2013-01-21 07:33:00,
2013-01-21 02:42:00,24.0,1.0,-100.00,NW,325,11.0,17.0,35,0.00,,,-99.99,,2013-01-21 07:42:00,
2013-01-21 02:52:00,24.0,0.0,-100.00,NNW,335,13.0,22.0,35,0.00,,,-99.99,,2013-01-21 07:52:00,
2013-01-21 03:03:00,24.0,1.0,-100.00,NNW,335,9.0,20.0,35,0.00,,,-99.99,,2013-01-21 08:03:00,
2013-01-21 03:14:00,24.0,-1.0,-100.00,NW,325,13.0,21.0,33,0.00,,,-99.99,,2013-01-21 08:14:00,
2013-01-21 03:23:00,24.0,-1.0,-100.00,NNW,340,12.0,22.0,33,0.00,,,-99.99,,2013-01-21 08:23:00,
2013-01-21 03:33:00,23.0,-1.0,-100.00,NNW,335,12.0,20.0,34,0.00,,,-99.99,,2013-01-21 08:33:00,
2013-01-21 03:42:00,23.0,-1.0,-100.00,NW,320,10.0,14.0,34,0.00,,,-99.99,,2013-01-21 08:42:00,
2013-01-21 03:53:00,23.0,-1.0,-100.00,NNW,340,8.0,14.0,35,0.00,,,-99.99,,2013-01-21 08:53:00,
2013-01-21 04:03:00,22.0,0.0,-100.00,NW,325,5.0,11.0,36,0.00,,,-99.99,,2013-01-21 09:03:00,
2013-01-21 04:13:00,22.0,0.0,-100.00,NNW,345,5.0,11.0,36,0.00,,,-99.99,,2013-01-21 09:13:00,
2013-01-21 04:23:00,22.0,-1.0,-100.00,NNW,330,6.0,10.0,36,0.00,,,-99.99,,2013-01-21 09:23:00,
2013-01-21 04:33:00,22.0,-1.0,-100.00,NNW,335,7.0,11.0,36,0.00,,,-99.99,,2013-01-21 09:33:00,
2013-01-21 04:42:00,22.0,-1.0,-100.00,NW,325,7.0,12.0,35,0.00,,,-99.99,,2013-01-21 09:42:00,
2013-01-21 04:53:00,21.0,-2.0,-100.00,NNW,330,7.0,12.0,35,0.00,,,-99.99,,2013-01-21 09:53:00,
2013-01-21 05:03:00,21.0,-2.0,-100.00,NNW,335,9.0,15.0,34,0.00,,,-99.99,,2013-01-21 10:03:00,
2013-01-21 05:12:00,21.0,-2.0,-100.00,NW,325,6.0,12.0,35,0.00,,,-99.99,,2013-01-21 10:12:00,
2013-01-21 05:22:00,21.0,-2.0,-100.00,WNW,300,4.0,10.0,35,0.00,,,-99.99,,2013-01-21 10:22:00,
2013-01-21 05:33:00,21.0,-2.0,-100.00,NW,320,6.0,14.0,35,0.00,,,-99.99,,2013-01-21 10:33:00,
2013-01-21 05:43:00,21.0,-2.0,-100.00,NNW,330,6.0,11.0,35,0.00,,,-99.99,,2013-01-21 10:43:00,
2013-01-21 05:52:00,21.0,-2.0,-100.00,NNW,340,4.0,9.0,36,0.00,,,-99.99,,2013-01-21 10:52:00,
2013-01-21 06:03:00,20.0,-2.0,-100.00,North,350,4.0,11.0,36,0.00,,,-99.99,,2013-01-21 11:03:00,
2013-01-21 06:13:00,20.0,-2.0,-100.00,NW,325,6.0,8.0,36,0.00,,,-99.99,,2013-01-21 11:13:00,
2013-01-21 06:23:00,20.0,-2.0,-100.00,WNW,295,5.0,9.0,36,0.00,,,-99.99,,2013-01-21 11:23:00,
2013-01-21 06:33:00,20.0,-2.0,-100.00,West,275,3.0,6.0,37,0.00,,,-99.99,,2013-01-21 11:33:00,
2013-01-21 06:43:00,20.0,-2.0,-100.00,NW,315,3.0,9.0,37,0.00,,,-99.99,,2013-01-21 11:43:00,
2013-01-21 06:53:00,20.0,-2.0,-100.00,West,275,3.0,7.0,38,0.00,,,-99.99,,2013-01-21 11:53:00,
2013-01-21 07:03:00,20.0,-1.0,-100.00,WNW,290,2.0,6.0,39,0.00,,,-99.99,,2013-01-21 12:03:00,
2013-01-21 07:12:00,20.0,-1.0,-100.00,West,275,2.0,4.0,40,0.00,,,-99.99,,2013-01-21 12:12:00,
2013-01-21 07:22:00,19.0,0.0,-100.00,West,280,2.0,6.0,42,0.00,,,-99.99,,2013-01-21 12:22:00,
2013-01-21 07:33:00,19.0,1.0,-100.00,West,280,2.0,4.0,44,0.00,,,-99.99,,2013-01-21 12:33:00,
2013-01-21 07:42:00,19.0,1.0,-100.00,West,260,2.0,4.0,44,0.00,,,-99.99,,2013-01-21 12:42:00,
2013-01-21 07:52:00,19.0,1.0,-100.00,NW,325,1.0,4.0,43,0.00,,,-99.99,,2013-01-21 12:52:00,
2013-01-21 08:03:00,20.0,1.0,-100.00,WNW,295,2.0,3.0,43,0.00,,,-99.99,,2013-01-21 13:03:00,
2013-01-21 08:13:00,20.0,1.0,-100.00,WSW,245,2.0,6.0,43,0.00,,,-99.99,,2013-01-21 13:13:00,
2013-01-21 08:23:00,20.0,1.0,-100.00,WNW,285,2.0,6.0,42,0.00,,,-99.99,,2013-01-21 13:23:00,
2013-01-21 08:33:00,21.0,2.0,-100.00,East,90,1.0,6.0,43,0.00,,,-99.99,,2013-01-21 13:33:00,
2013-01-21 08:43:00,21.0,2.0,-100.00,NW,315,4.0,7.0,42,0.00,,,-99.99,,2013-01-21 13:43:00,
2013-01-21 08:53:00,21.0,2.0,-100.00,NW,310,1.0,9.0,42,0.00,,,-99.99,,2013-01-21 13:53:00,
2013-01-21 09:04:00,21.0,2.0,-100.00,NW,315,3.0,10.0,42,0.00,,,-99.99,,2013-01-21 14:04:00,
2013-01-21 09:13:00,21.0,1.0,-100.00,NNW,335,6.0,14.0,40,0.00,,,-99.99,,2013-01-21 14:13:00,
2013-01-21 09:23:00,22.0,1.0,-100.00,NW,320,5.0,9.0,39,0.00,,,-99.99,,2013-01-21 14:23:00,
2013-01-21 09:33:00,22.0,1.0,-100.00,NW,325,6.0,10.0,40,0.00,,,-99.99,,2013-01-21 14:33:00,
2013-01-21 09:43:00,22.0,1.0,-100.00,NW,305,5.0,12.0,39,0.00,,,-99.99,,2013-01-21 14:43:00,
2013-01-21 09:53:00,23.0,2.0,-100.00,NNW,340,4.0,12.0,38,0.00,,,-99.99,,2013-01-21 14:53:00,
2013-01-21 10:03:00,24.0,1.0,-100.00,West,265,3.0,7.0,37,0.00,,,-99.99,,2013-01-21 15:03:00,
2013-01-21 10:13:00,24.0,1.0,-100.00,WNW,290,4.0,10.0,36,0.00,,,-99.99,,2013-01-21 15:13:00,
2013-01-21 10:23:00,24.0,1.0,-100.00,NNW,345,5.0,11.0,35,0.00,,,-99.99,,2013-01-21 15:23:00,
2013-01-21 10:33:00,26.0,1.0,-100.00,West,275,6.0,9.0,34,0.00,,,-99.99,,2013-01-21 15:33:00,
2013-01-21 10:43:00,26.0,1.0,-100.00,West,275,4.0,10.0,34,0.00,,,-99.99,,2013-01-21 15:43:00,
2013-01-21 10:53:00,25.0,1.0,-100.00,West,275,4.0,13.0,34,0.00,,,-99.99,,2013-01-21 15:53:00,
2013-01-21 11:04:00,25.0,1.0,-100.00,WSW,250,4.0,9.0,34,0.00,,,-99.99,,2013-01-21 16:04:00,
2013-01-21 11:13:00,25.0,1.0,-100.00,NNW,330,7.0,14.0,35,0.00,,,-99.99,,2013-01-21 16:13:00,
2013-01-21 11:23:00,25.0,2.0,-100.00,NW,325,2.0,14.0,35,0.00,,,-99.99,,2013-01-21 16:23:00,
2013-01-21 11:33:00,26.0,1.0,-100.00,NNW,330,1.0,12.0,34,0.00,,,-99.99,,2013-01-21 16:33:00,
2013-01-21 11:43:00,25.0,1.0,-100.00,NW,320,5.0,10.0,34,0.00,,,-99.99,,2013-01-21 16:43:00,
2013-01-21 11:53:00,26.0,2.0,-100.00,NNW,335,6.0,10.0,33,0.00,,,-99.99,,2013-01-21 16:53:00,
2013-01-21 12:03:00,26.0,1.0,-100.00,NW,320,7.0,13.0,33,0.00,,,-99.99,,2013-01-21 17:03:00,
2013-01-21 12:13:00,27.0,1.0,-100.00,NW,320,5.0,12.0,33,0.00,,,-99.99,,2013-01-21 17:13:00,
2013-01-21 12:23:00,26.0,1.0,-100.00,NNW,335,6.0,14.0,33,0.00,,,-99.99,,2013-01-21 17:23:00,
2013-01-21 12:33:00,26.0,1.0,-100.00,West,280,5.0,12.0,33,0.00,,,-99.99,,2013-01-21 17:33:00,
2013-01-21 12:43:00,27.0,1.0,-100.00,West,280,3.0,12.0,32,0.00,,,-99.99,,2013-01-21 17:43:00,
2013-01-21 12:53:00,26.0,2.0,-100.00,WSW,250,4.0,10.0,34,0.00,,,-99.99,,2013-01-21 17:53:00,
2013-01-21 13:03:00,26.0,2.0,-100.00,WNW,295,6.0,12.0,34,0.00,,,-99.99,,2013-01-21 18:03:00,
2013-01-21 13:12:00,27.0,2.0,-100.00,West,270,2.0,7.0,34,0.00,,,-99.99,,2013-01-21 18:12:00,
2013-01-21 13:23:00,26.0,2.0,-100.00,West,275,3.0,12.0,35,0.00,,,-99.99,,2013-01-21 18:23:00,
2013-01-21 13:33:00,26.0,3.0,-100.00,SSW,210,6.0,9.0,35,0.00,,,-99.99,,2013-01-21 18:33:00,
2013-01-21 13:43:00,27.0,3.0,-100.00,WSW,245,3.0,9.0,35,0.00,,,-99.99,,2013-01-21 18:43:00,
2013-01-21 13:52:00,27.0,2.0,-100.00,WSW,255,4.0,9.0,34,0.00,,,-99.99,,2013-01-21 18:52:00,
2013-01-21 14:03:00,27.0,3.0,-100.00,NNW,330,2.0,7.0,34,0.00,,,-99.99,,2013-01-21 19:03:00,
2013-01-21 14:13:00,27.0,2.0,-100.00,WSW,250,4.0,9.0,34,0.00,,,-99.99,,2013-01-21 19:13:00,
2013-01-21 14:22:00,26.0,3.0,-100.00,WSW,240,4.0,9.0,35,0.00,,,-99.99,,2013-01-21 19:22:00,
2013-01-21 14:33:00,27.0,3.0,-100.00,WSW,250,4.0,8.0,35,0.00,,,-99.99,,2013-01-21 19:33:00,
2013-01-21 14:43:00,27.0,3.0,-100.00,SSW,195,4.0,9.0,36,0.00,,,-99.99,,2013-01-21 19:43:00,
2013-01-21 14:53:00,27.0,3.0,-100.00,SW,225,4.0,9.0,35,0.00,,,-99.99,,2013-01-21 19:53:00,
2013-01-21 15:04:00,27.0,3.0,-100.00,WNW,285,2.0,6.0,34,0.00,,,-99.99,,2013-01-21 20:04:00,
2013-01-21 15:12:00,27.0,3.0,-100.00,SW,225,6.0,10.0,36,0.00,,,-99.99,,2013-01-21 20:12:00,
2013-01-21 15:23:00,27.0,4.0,-100.00,SW,225,4.0,8.0,36,0.00,,,-99.99,,2013-01-21 20:23:00,
2013-01-21 15:33:00,27.0,4.0,-100.00,SSW,205,5.0,10.0,36,0.00,,,-99.99,,2013-01-21 20:33:00,
2013-01-21 15:43:00,27.0,4.0,-100.00,SSW,200,3.0,7.0,36,0.00,,,-99.99,,2013-01-21 20:43:00,
2013-01-21 15:53:00,27.0,4.0,-100.00,SW,215,3.0,6.0,37,0.00,,,-99.99,,2013-01-21 20:53:00,
2013-01-21 16:04:00,27.0,4.0,-100.00,West,265,3.0,7.0,37,0.00,,,-99.99,,2013-01-21 21:04:00,
2013-01-21 16:12:00,27.0,4.0,-100.00,SW,220,4.0,9.0,36,0.00,,,-99.99,,2013-01-21 21:12:00,
2013-01-21 16:23:00,27.0,4.0,-100.00,WNW,285,3.0,7.0,37,0.00,,,-99.99,,2013-01-21 21:23:00,
2013-01-21 16:33:00,27.0,4.0,-100.00,West,265,4.0,8.0,37,0.00,,,-99.99,,2013-01-21 21:33:00,
2013-01-21 16:43:00,27.0,5.0,-100.00,West,275,2.0,7.0,38,0.00,,,-99.99,,2013-01-21 21:43:00,
2013-01-21 16:53:00,26.0,6.0,-100.00,West,275,2.0,6.0,40,0.00,,,-99.99,,2013-01-21 21:53:00,
2013-01-21 17:04:00,26.0,6.0,-100.00,West,260,1.0,6.0,40,0.00,,,-99.99,,2013-01-21 22:04:00,
2013-01-21 17:13:00,27.0,6.0,-100.00,WNW,295,2.0,4.0,40,0.00,,,-99.99,,2013-01-21 22:13:00,
2013-01-21 17:23:00,26.0,7.0,-100.00,SW,225,2.0,7.0,43,0.00,,,-99.99,,2013-01-21 22:23:00,
2013-01-21 17:33:00,26.0,9.0,-100.00,South,190,4.0,10.0,48,0.00,,,-99.99,,2013-01-21 22:33:00,
2013-01-21 17:43:00,26.0,10.0,-100.00,SW,230,6.0,10.0,50,0.00,,,-99.99,,2013-01-21 22:43:00,
2013-01-21 17:52:00,26.0,10.0,-100.00,WSW,245,2.0,7.0,51,0.00,,,-99.99,,2013-01-21 22:52:00,
2013-01-21 18:03:00,26.0,11.0,-100.00,West,280,1.0,4.0,52,0.00,,,-99.99,,2013-01-21 23:03:00,
2013-01-21 18:13:00,26.0,11.0,-100.00,WSW,245,2.0,5.0,54,0.00,,,-99.99,,2013-01-21 23:13:00,
2013-01-21 18:23:00,25.0,12.0,-100.00,SSW,200,3.0,7.0,57,0.00,,,-99.99,,2013-01-21 23:23:00,
2013-01-21 18:33:00,25.0,14.0,-100.00,WSW,240,4.0,7.0,62,0.00,,,-99.99,,2013-01-21 23:33:00,
2013-01-21 18:42:00,24.0,14.0,-100.00,WSW,250,2.0,5.0,65,0.00,,,-99.99,,2013-01-21 23:42:00,
2013-01-21 18:53:00,24.0,16.0,-100.00,West,265,2.0,4.0,71,0.00,,,-99.99,,2013-01-21 23:53:00,
2013-01-21 19:03:00,24.0,16.0,-100.00,West,260,1.0,4.0,73,0.01,,,-99.99,,2013-01-22 00:03:00,
2013-01-21 19:12:00,23.0,17.0,-100.00,SW,220,1.0,4.0,75,0.01,,,-99.99,,2013-01-22 00:12:00,
2013-01-21 19:23:00,23.0,17.0,-100.00,WNW,285,1.0,2.0,76,0.04,,,-99.99,,2013-01-22 00:23:00,
2013-01-21 19:33:00,23.0,17.0,-100.00,East,100,0.0,1.0,79,0.06,,,-99.99,,2013-01-22 00:33:00,
2013-01-21 19:43:00,23.0,18.0,-100.00,SE,145,0.0,3.0,81,0.03,,,-99.99,,2013-01-22 00:43:00,
2013-01-21 19:53:00,22.0,18.0,-100.00,ENE,70,1.0,1.0,83,0.03,,,-99.99,,2013-01-22 00:53:00,
2013-01-21 20:02:00,22.0,19.0,-100.00,ENE,70,1.0,1.0,85,0.04,,,-99.99,,2013-01-22 01:02:00,
2013-01-21 20:12:00,22.0,19.0,-100.00,East,90,1.0,1.0,86,0.01,,,-99.99,,2013-01-22 01:12:00,
2013-01-21 20:23:00,22.0,19.0,-100.00,East,100,1.0,1.0,87,0.01,,,-99.99,,2013-01-22 01:23:00,
2013-01-21 20:33:00,22.0,19.0,-100.00,NE,55,1.0,2.0,87,0.01,,,-99.99,,2013-01-22 01:33:00,
2013-01-21 20:43:00,22.0,19.0,-100.00,ENE,70,1.0,2.0,88,0.00,,,-99.99,,2013-01-22 01:43:00,
2013-01-21 20:52:00,22.0,20.0,-100.00,East,90,0.0,2.0,88,0.00,,,-99.99,,2013-01-22 01:52:00,
2013-01-21 21:03:00,22.0,19.0,-100.00,East,85,2.0,4.0,89,0.00,,,-99.99,,2013-01-22 02:03:00,
2013-01-21 21:12:00,22.0,19.0,-100.00,ENE,75,1.0,4.0,89,0.00,,,-99.99,,2013-01-22 02:12:00,
2013-01-21 21:23:00,22.0,20.0,-100.00,SE,125,1.0,3.0,90,0.00,,,-99.99,,2013-01-22 02:23:00,
2013-01-21 21:33:00,22.0,19.0,-100.00,South,190,1.0,3.0,90,0.00,,,-99.99,,2013-01-22 02:33:00,
2013-01-21 21:43:00,22.0,19.0,-100.00,SE,135,0.0,2.0,90,0.00,,,-99.99,,2013-01-22 02:43:00,
2013-01-21 21:53:00,22.0,19.0,-100.00,East,80,1.0,3.0,91,0.00,,,-99.99,,2013-01-22 02:53:00,
2013-01-21 22:03:00,22.0,19.0,-100.00,East,85,1.0,4.0,91,0.00,,,-99.99,,2013-01-22 03:03:00,
2013-01-21 22:12:00,22.0,19.0,-100.00,ENE,65,2.0,5.0,91,0.00,,,-99.99,,2013-01-22 03:12:00,
2013-01-21 22:22:00,22.0,20.0,-100.00,South,180,2.0,4.0,92,0.00,,,-99.99,,2013-01-22 03:22:00,
2013-01-21 22:33:00,21.0,19.0,-100.00,ENE,65,0.0,3.0,92,0.00,,,-99.99,,2013-01-22 03:33:00,
2013-01-21 22:42:00,21.0,20.0,-100.00,South,185,1.0,2.0,92,0.00,,,-99.99,,2013-01-22 03:42:00,
2013-01-21 22:52:00,21.0,20.0,-100.00,ESE,120,1.0,2.0,92,0.00,,,-99.99,,2013-01-22 03:52:00,
2013-01-21 23:03:00,21.0,20.0,-100.00,East,90,1.0,3.0,92,0.00,,,-99.99,,2013-01-22 04:03:00,
2013-01-21 23:12:00,21.0,19.0,-100.00,South,190,2.0,4.0,92,0.00,,,-99.99,,2013-01-22 04:12:00,
2013-01-21 23:22:00,22.0,20.0,-100.00,ESE,115,1.0,3.0,92,0.00,,,-99.99,,2013-01-22 04:22:00,
2013-01-21 23:33:00,21.0,20.0,-100.00,SSE,150,0.0,2.0,92,0.00,,,-99.99,,2013-01-22 04:33:00,
2013-01-21 23:42:00,21.0,20.0,-100.00,East,100,0.0,2.0,92,0.00,,,-99.99,,2013-01-22 04:42:00,
2013-01-21 23:52:00,21.0,20.0,-100.00,NE,45,0.0,1.0,92,0.00,,,-99.99,,2013-01-22 04:52:00,